If you wish to contribute or participate in the discussions about articles you are invited to join SKYbrary as a registered user

 Actions

Al Udeid Air Base

From SKYbrary Wiki

OTBH
Airport
ICAO: OTBH – IATA: IUD
Summary
Name Al Udeid Air Base
Region Middle East
Territory Qatar QA.gif
Location Al-Udeid, Ad Dawhah
Serving Al-Udeid Air Base
Elevation 39.624 m <br />130 ft39.624 m <br />
Coordinates 25° 7' 0.82" N, 51° 18' 54.74" E
Runways
Designator Length Width Surface ROPS
16/34 3750 m12,303.15 ft <br /> 45 m147.638 ft <br /> ASP yes/yes


METAR
Observation OTBH 241556Z AUTO 13011KT 9999 CLR 28/23 A2987 RMK AO2 SLP116 T02820226 $
Station Al Udeid
Date/Time 24 October 2021 15:56:00
Wind direction 130°
Wind speed 11 kts
Lowest cloud amount n/a
Temperature 28.2°C
Dew point 22.6°C
Humidity 71%
QNH hPa
Weather condition n/a

Al Udeid Air Base is a military base southwest of Doha, Qatar, also known as Abu Nakhlah Airport. It houses Qatari Air Force, U.S. Air Force, and Royal Air Force personnel and assets.

Climatology

Hot Desert Climate (Köppen climate classification BWh)

Maps

Terrain

Loading map...

Airport Layout

Loading map...


Accidents & Serious Incidents at or in vicinity of OTBH

None on SKYbrary